Location: Wingville
(42.9917°N, 90.4915°W)
Time: 22:53:06
(UTC+00:00)

CUBESAT XI-V - Pass Details

Date: 30 June 2022
Orbit: 667 x 690 km, 98.1° (Epoch: 07 August)

Event Time Altitude Azimuth Distance (km) Brightness Sun altitude
Exits shadow 07:17:15 26° 129° (SE) 1,319 ? -21.8°
Maximum altitude 07:19:27 46° 71° (ENE) 905 ? -21.7°
Drops below altitude 10° 07:23:51 10° 359° (N) 2,110 ? -21.4°
Sets 07:26:09 0° 353° (N) 3,025 ? -21.3°
